Theta_e
320 318 317 318 318 317 317 317 319 321 321 322 322 323 321 323 323 322 321 322 322 324
321 320 319 319 319 318 318 320 321 321 321 322 323 322 323 324 323 324 325 326 325 325
325 322 322 319 319 319 319 320 321 321 321 322 322 322 324 323 322 326 327 327 326 326
324 323 323 322 319 320 320 320 322 322 323 322 322 323 323 321 323 325 326 327 326 324
324 323 322 321 321 321 320 321 322 324 324 324 322 323 324 323 324 324 324 325 326 325
323 321 323 321 321 322 322 322 324 325 324 325 324 323 323 323 322 323 324 325 326 326
321 321 321 322 321 322 323 323 324 325 326 326 325 325 324 323 321 320 323 326 326 326
320 321 323 323 321 322 322 323 324 325 326 326 326 327 326 325 325 324 322 322 325 325
320 323 323 323 321 323 322 320 322 323 324 324 327 309 313 322 325 325 324 323 325 324
317 323 320 321 319 320 316 316 317 318 318 317 319 306 309 315 326 325 324 324 324 326
317 321 318 318 318 317 315 315 313 313 313 314 316 305 307 311 327 325 324 323 323 324
317 321 319 316 316 316 314 313 312 312 311 311 310 303 305 317 323 322 320 319 318 319
316 320 320 316 317 317 315 314 313 311 311 307 306 302 306 315 320 317 314 313 315 307
315 317 321 318 319 319 318 316 312 311 310 309 305 301 302 306 317 315 310 312 311 306
Wind_Speed
6 4 3 2 2 2 2 3 3 3 3 1 3 5 5 4 3 5 4 6 5 4
4 6 5 4 3 3 3 2 3 3 3 2 3 5 6 4 6 7 5 6 7 6
5 5 5 4 4 5 3 2 3 4 4 4 5 5 6 6 5 9 6 6 9 7
5 4 5 4 4 5 4 4 4 5 5 5 6 6 7 6 7 10 8 8 9 9
6 5 6 5 5 4 5 4 5 5 5 6 6 7 8 8 10 10 8 7 9 10
6 6 6 5 5 5 6 6 6 5 5 6 7 8 6 8 8 10 8 6 9 9
5 5 5 5 5 6 5 6 6 5 6 6 6 7 7 7 7 6 7 6 8 9
6 5 6 6 5 5 5 5 5 6 6 6 6 6 8 7 7 6 7 6 7 6
4 6 5 7 5 6 5 4 5 6 6 6 4 11 10 9 6 6 7 8 6 9
5 6 6 7 5 6 6 5 6 6 6 6 6 13 14 12 5 4 6 7 8 9
6 6 7 7 7 5 5 6 5 6 6 6 4 12 15 13 10 6 5 6 7 8
7 6 7 7 8 6 6 4 4 5 6 7 4 8 12 10 7 7 6 5 5 7
8 7 8 8 8 5 5 6 5 5 5 8 6 7 10 8 4 5 4 3 4 9
8 9 9 7 5 6 6 6 6 6 4 6 7 5 10 12 5 6 5 5 4 3
Wind_Direction
144 124 128 145 128 85 104 125 135 114 112 65 88 84 96 102 99 98 107 131 95 106
153 139 149 125 103 107 127 137 131 132 146 152 112 103 104 98 92 88 98 91 90 91
164 144 153 133 132 147 135 120 137 130 148 134 107 107 100 87 80 100 100 111 113 101
148 152 145 157 164 156 138 143 141 140 133 128 118 119 99 86 91 105 102 116 117 108
133 134 137 148 160 143 145 137 136 126 117 113 114 109 115 111 116 118 114 107 122 119
136 130 131 140 146 130 135 135 126 125 124 116 121 114 114 113 112 130 133 127 132 128
163 145 133 137 138 139 143 131 130 132 129 120 119 121 114 116 111 107 117 111 126 141
184 135 141 140 144 134 133 129 137 131 128 132 131 132 132 128 124 124 116 108 121 111
188 153 181 136 141 122 126 114 108 120 129 128 132 138 118 123 123 128 129 115 107 118
161 142 164 137 135 122 113 111 119 124 124 107 121 134 121 121 135 110 119 116 131 136
155 153 127 133 155 121 124 129 128 126 116 121 131 145 148 151 156 144 141 152 148 141
158 155 132 129 138 131 123 121 127 130 126 122 124 166 156 137 131 134 149 156 163 148
160 158 154 150 144 148 143 146 139 138 134 129 126 158 158 135 128 130 131 131 158 158
167 162 164 162 147 141 144 139 143 149 160 139 137 118 145 144 145 147 148 146 145 130